Regional Weather Roundup
Issued by NWS

Home | Current Version | Previous Version | Graphics & Text | Print | Product List | Glossary On
Versions: 1 2 3 4 5 6 7 8 9 10 11 12 13 14 15 16 17 18 19 20 21 22 23 24 25 26 27 28 29 30 31 32 33 34 35 36 37 38 39 40 41 42 43 44 45 46 47 48 49 50
000
ASUS43 KOAX 192310
RWRNE

WEATHER ROUNDUP FOR NEBRASKA
NATIONAL WEATHER SERVICE OMAHA NE
600 PM CDT THU APR 19 2018

NOTES: SATELLITE DATA IS BEING USED TO AUGMENT CLOUD COVER ABOVE
       12000 FEET.
       "FAIR" INDICATES FEW OR NO CLOUDS BELOW 12,000 FEET WITH NO
       SIGNIFICANT WEATHER AND/OR OBSTRUCTIONS TO VISIBILITY.


NEZ001>004-019>022-054>056-200000-
NEBRASKA PANHANDLE

CITY           SKY/WX    TMP DP  RH WIND       PRES   REMARKS
SCOTTSBLUFF    PTSUNNY   61  30  31 SE26G35   30.09F
ALLIANCE       PTSUNNY   57  31  37 SE23G33   30.15F
CHADRON        MOSUNNY   60  31  33 S23G31    30.13F
GORDON         FAIR      58  26  29 S18G24    30.19S
KIMBALL        PTSUNNY   59  23  25 S26G33    30.09F
SIDNEY         PTSUNNY   60  27  28 SE24G38   30.14F
$$

NEZ057>060-069>072-079>082-200000-
SOUTHWEST NEBRASKA

CITY           SKY/WX    TMP DP  RH WIND       PRES   REMARKS
NORTH PLATTE   MOSUNNY   59  29  31 SE18      30.26F
IMPERIAL       MOSUNNY   61  27  27 E28G36    30.20F
LEXINGTON      PTSUNNY   57  26  30 SE14G20   30.30F
MCCOOK         MOSUNNY   59  27  29 SE14G23   30.26F
OGALLALA       SUNNY     61  27  27 SE22G28   30.20F
$$

NEZ005>010-023>029-035>040-094-200000-
NORTH CENTRAL NEBRASKA

CITY           SKY/WX    TMP DP  RH WIND       PRES   REMARKS
VALENTINE      MOSUNNY   56  27  32 SE16G25   30.27F
AINSWORTH      MOSUNNY   53  24  32 SE16      30.29F
BROKEN BOW     PTSUNNY   55  27  34 SE15      30.29F
O`NEILL        PTSUNNY   52  25  35 E12       30.36F
ORD            PTSUNNY   53  23  31 E13       30.32F
THEDFORD       SUNNY     56  30  36 SE14G22   30.27S
$$

NEZ041-046>049-061>064-073>077-083>087-200000-
SOUTH CENTRAL NEBRASKA

CITY           SKY/WX    TMP DP  RH WIND       PRES   REMARKS
GRAND ISLAND   CLOUDY    57  26  30 E10       30.34F
AURORA         CLOUDY    57  24  27 SE9       30.34F
HASTINGS       CLOUDY    56  25  30 E10G21    30.32F
HEBRON         SUNNY     58  24  26 SE8       30.34F
HOLDREGE       CLOUDY    56  28  33 SE10      30.30F
KEARNEY        SUNNY     56  26  31 E15       30.32F
YORK             N/A     57  25  28 E3        30.34F
$$

NEZ011>018-030>034-042>045-200000-
NORTHEAST NEBRASKA

CITY           SKY/WX    TMP DP  RH WIND       PRES   REMARKS
NORFOLK        SUNNY     53  22  29 E7        30.36F
ALBION         MOSUNNY   56  23  28 E6        30.35F
BLAIR          SUNNY     57  29  34 SE8       30.37F
COLUMBUS       SUNNY     56  23  27 E7        30.37F
FREMONT        SUNNY     58  28  32 E5        30.38F
TEKAMAH        SUNNY     56  28  34 E8        30.38F
WAYNE          SUNNY     54  25  32 E8        30.39S
$$

NEZ050>053-065>068-078-088>093-200000-
SOUTHEAST NEBRASKA

CITY           SKY/WX    TMP DP  RH WIND       PRES   REMARKS
LINCOLN        SUNNY     59  25  27 VRB3      30.37F
OMAHA EPPLEY   MOSUNNY   58  27  30 E7        30.38F
BEATRICE       SUNNY     59  29  31 E3        30.35F
FALLS CITY     SUNNY     59  28  30 E13       30.36F
NEBRASKA CITY  SUNNY     58  31  35 E3        30.38S
PLATTSMOUTH    SUNNY     57  29  33 SE3       30.38S
$$

NEZ044-045-051>053-067-200000-
OMAHA AREA

CITY           SKY/WX    TMP DP  RH WIND       PRES   REMARKS
OMAHA EPPLEY   MOSUNNY   58  27  30 E7        30.38F
BLAIR          SUNNY     57  29  34 SE8       30.37F
FREMONT        SUNNY     58  28  32 E5        30.38F
MILLARD        SUNNY     58  31  35 SE3       30.38F
PLATTSMOUTH    SUNNY     57  29  33 SE3       30.38S
WAHOO          FAIR      58  21  24 E8        30.37F
$$




USA.gov is the U.S. government's official web portal to all federal, state and local government web resources and services.